Flag Weather past 2 weeks in Basel, Basel-Stadt, Switzerland

Now
52 °F

Overcast.


Feels Like: 51 °F
Forecast: 40 / 52 °F
Wind: 3 mph from Northwest

Location: Bale-Mulhouse

Current Time: Nov 26, 2014 at 2:02:59 PM

Latest Report: Nov 26, 2014 at 1:00 PM


Visibility: 5 mi

Pressure: 29.96 "Hg

Humidity: 85%

Dew point: 47 °F

Location of BaselLocation

Historic Weather in Basel — Graph

°F

Basel temperature yesterday

Maximum temperature yesterday: 48 °F (at 12:00 AM)
Minimum temperature yesterday: 46 °F (at 9:00 PM)
Average temperature yesterday: 47 °F

Past Weeks' High & Low Weather Summary

 TemperatureHumidityPressure
High58 °F (Nov 24, 2:00 PM)100% (Nov 20, 8:00 AM)30.30 "Hg (Nov 20, 8:00 AM)
Low33 °F (Nov 20, 2:00 AM)63% (Nov 16, 3:00 PM)29.59 "Hg (Nov 16, 3:00 PM)
Average46 °F91%29.95 "Hg
* Reported Nov 11 12:00 Noon — Nov 26 12:00 Noon, Basel, Weather by CustomWeather, © 2014

Note: Actual official high and low records may vary slightly from our data, if they occured in-between our weather recording intervals... More about our weather records

Advertising

Basel weather history for previous 24 hours

 ConditionsComfort  
Time TempWeatherWind HumidityBarometerVisibility
12:00 PM
Nov 26
50 °FOvercast.2 mph90%29.98 "Hg4 mi
11:00 AM47 °FLow clouds.3 mph98%30.00 "Hg4 mi
10:00 AM46 °FFog.3 mph100%30.01 "Hg1 mi
9:00 AM45 °FFog.3 mph99%30.01 "Hg1 mi
8:00 AM44 °FFog.3 mph99%30.01 "Hg0 mi
7:00 AM44 °FFog.5 mph100%30.01 "Hg1 mi
6:00 AM44 °FFog.3 mph98%30.01 "Hg1 mi
5:00 AM44 °FFog.3 mph98%30.01 "Hg1 mi
3:00 AM45 °FLow clouds.5 mph98%30.04 "Hg1 mi
2:00 AM45 °FLow clouds.5 mph94%30.05 "Hg2 mi
1:00 AM48 °FOvercast.6 mph84%30.05 "Hg11 mi
12:00 AM48 °FOvercast.6 mph84%30.07 "Hg9 mi
11:00 PM
Nov 25
48 °FOvercast.6 mph89%30.08 "Hg9 mi
10:00 PM46 °FFog.3 mph98%30.09 "Hg2 mi
9:00 PM46 °FFog.5 mph97%30.10 "Hg2 mi
8:00 PM46 °FFog.3 mph97%30.09 "Hg2 mi
7:00 PM46 °FFog.7 mph96%30.10 "Hg3 mi
6:00 PM47 °FFog.6 mph96%30.10 "Hg3 mi
5:00 PM47 °FFog.5 mph95%30.11 "Hg3 mi
4:00 PM47 °FFog.6 mph95%30.12 "Hg3 mi
3:00 PM47 °FFog.7 mph94%30.12 "Hg2 mi
2:00 PM47 °FLow clouds.6 mph95%30.13 "Hg4 mi
Weather by CustomWeather, © 2014

See weather overviewHow to use our weather pages